| time (UTC) | temp F | wind direction | speed MPH | gust MPH | rain 1hr in | rain 24hr in | rain mn in | humidity % | barometer mb |
| 20260905162749 | 90 | 275 | 2.0 | 8.0 | 0.00 | 0.00 | 0.00 | 66 | 1014.2 |
| 20260905162214 | 90 | 144 | 1.0 | 9.0 | 0.00 | 0.00 | 0.00 | 66 | 1014.2 |
| 20260905161721 | 90 | 167 | 5.0 | 10.0 | 0.00 | 0.00 | 0.00 | 65 | 1014.2 |
| 20260905161226 | 89 | 166 | 5.0 | 10.0 | 0.00 | 0.00 | 0.00 | 66 | 1014.2 |
| 20260905160734 | 89 | 171 | 6.0 | 10.0 | 0.00 | 0.00 | 0.00 | 67 | 1014.1 |
| 20260905160218 | 89 | 160 | 2.0 | 8.0 | 0.00 | 0.00 | 0.00 | 67 | 1014.2 |
| 20260905155746 | 89 | 134 | 3.0 | 12.0 | 0.00 | 0.00 | 0.00 | 67 | 1014.2 |
| 20260905155231 | 88 | 215 | 4.0 | 12.0 | 0.00 | 0.00 | 0.00 | 67 | 1014.5 |
| 20260905154716 | 88 | 173 | 5.0 | 13.0 | 0.00 | 0.00 | 0.00 | 69 | 1014.6 |
| 20260905154222 | 88 | 144 | 6.0 | 13.0 | 0.00 | 0.00 | 0.00 | 68 | 1014.7 |
| 20260905153727 | 88 | 163 | 6.0 | 14.0 | 0.00 | 0.00 | 0.00 | 67 | 1014.5 |
| 20260905153235 | 87 | 167 | 6.0 | 16.0 | 0.00 | 0.00 | 0.00 | 69 | 1014.5 |
| 20260905152738 | 87 | 159 | 8.0 | 16.0 | 0.00 | 0.00 | 0.00 | 71 | 1014.4 |
| 20260905152219 | 86 | 127 | 7.0 | 12.0 | 0.00 | 0.00 | 0.00 | 71 | 1014.4 |
| 20260905151720 | 86 | 156 | 8.0 | 14.0 | 0.00 | 0.00 | 0.00 | 70 | 1014.3 |
| 20260905151222 | 86 | 162 | 7.0 | 14.0 | 0.00 | 0.00 | 0.00 | 71 | 1014.5 |
| 20260905150743 | 86 | 139 | 4.0 | 17.0 | 0.00 | 0.00 | 0.00 | 71 | 1014.4 |
| 20260905150224 | 86 | 164 | 8.0 | 17.0 | 0.00 | 0.00 | 0.00 | 71 | 1014.4 |
| 20260905145746 | 85 | 132 | 9.0 | 16.0 | 0.00 | 0.00 | 0.00 | 74 | 1014.5 |
| 20260905145227 | 85 | 115 | 6.0 | 12.0 | 0.00 | 0.00 | 0.00 | 75 | 1014.5 |
| 20260905144729 | 85 | 207 | 4.0 | 18.0 | 0.00 | 0.00 | 0.00 | 75 | 1014.5 |
| 20260905144253 | 85 | 78 | 11.0 | 18.0 | 0.00 | 0.00 | 0.00 | 76 | 1014.5 |
| 20260905143717 | 84 | 141 | 5.0 | 11.0 | 0.00 | 0.00 | 0.00 | 78 | 1014.5 |
| 20260905143241 | 84 | 220 | 5.0 | 11.0 | 0.00 | 0.00 | 0.00 | 79 | 1014.5 |
| 20260905142723 | 83 | 148 | 6.0 | 14.0 | 0.00 | 0.00 | 0.00 | 80 | 1014.5 |
| 20260905142228 | 83 | 171 | 8.0 | 14.0 | 0.00 | 0.00 | 0.00 | 80 | 1014.7 |
| 20260905141752 | 82 | 173 | 7.0 | 16.0 | 0.00 | 0.00 | 0.00 | 82 | 1014.7 |
| 20260905141214 | 82 | 188 | 9.0 | 16.0 | 0.00 | 0.00 | 0.00 | 84 | 1014.7 |
| 20260905140718 | 81 | 150 | 8.0 | 16.0 | 0.00 | 0.00 | 0.00 | 85 | 1014.7 |
| 20260905140223 | 80 | 148 | 9.0 | 18.0 | 0.00 | 0.00 | 0.00 | 87 | 1014.7 |
| 20260905135727 | 79 | 128 | 8.0 | 18.0 | 0.00 | 0.00 | 0.00 | 88 | 1014.7 |
| 20260905135232 | 79 | 148 | 9.0 | 15.0 | 0.00 | 0.00 | 0.00 | 90 | 1014.7 |
| 20260905134717 | 78 | 153 | 7.0 | 14.0 | 0.00 | 0.00 | 0.00 | 93 | 1014.6 |
| 20260905134222 | 77 | 156 | 6.0 | 12.0 | 0.00 | 0.00 | 0.00 | 94 | 1014.8 |
| 20260905133729 | 76 | 172 | 3.0 | 10.0 | 0.00 | 0.00 | 0.00 | 94 | 1014.7 |
| 20260905133234 | 76 | 155 | 5.0 | 10.0 | 0.00 | 0.00 | 0.00 | 94 | 1014.8 |
| 20260905132739 | 76 | 142 | 6.0 | 12.0 | 0.00 | 0.00 | 0.00 | 94 | 1014.8 |
| 20260905132224 | 76 | 161 | 4.0 | 17.0 | 0.00 | 0.00 | 0.00 | 94 | 1014.8 |
| 20260905131730 | 76 | 156 | 7.0 | 9.0 | 0.00 | 0.00 | 0.00 | 94 | 1014.9 |
| 20260905131216 | 76 | 171 | 0.0 | 4.0 | 0.00 | 0.00 | 0.00 | 95 | 1014.5 |
| 20260905130722 | 76 | 236 | 0.0 | 0.0 | 0.00 | 0.00 | 0.00 | 95 | 1014.4 |
| 20260905130250 | 75 | 236 | 0.0 | 0.0 | 0.00 | 0.00 | 0.00 | 94 | 1014.4 |
| 20260905125736 | 75 | 236 | 0.0 | 0.0 | 0.00 | 0.00 | 0.00 | 95 | 1014.2 |
| 20260905125222 | 75 | 236 | 0.0 | 0.0 | 0.00 | 0.00 | 0.00 | 94 | 1014.1 |
| 20260905124747 | 75 | 236 | 0.0 | 0.0 | 0.00 | 0.00 | 0.00 | 94 | 1014.1 |
| 20260905124213 | 75 | 236 | 0.0 | 0.0 | 0.00 | 0.00 | 0.00 | 94 | 1014.1 |
| 20260905123739 | 75 | 236 | 0.0 | 0.0 | 0.00 | 0.00 | 0.00 | 94 | 1014.1 |
| 20260905123245 | 75 | 236 | 0.0 | 0.0 | 0.00 | 0.00 | 0.00 | 94 | 1014.0 |
| 20260905122751 | 75 | 236 | 0.0 | 0.0 | 0.00 | 0.00 | 0.00 | 94 | 1014.0 |
| 20260905122217 | 75 | 236 | 0.0 | 0.0 | 0.00 | 0.00 | 0.00 | 94 | 1014.0 |
| 20260905121743 | 75 | 236 | 0.0 | 0.0 | 0.00 | 0.00 | 0.00 | 94 | 1014.0 |
| 20260905121250 | 74 | 236 | 0.0 | 0.0 | 0.00 | 0.00 | 0.00 | 94 | 1014.0 |
| 20260905120715 | 74 | 236 | 0.0 | 0.0 | 0.00 | 0.00 | 0.00 | 94 | 1014.0 |
| 20260905120221 | 74 | 236 | 0.0 | 0.0 | 0.00 | 0.00 | 0.00 | 94 | 1014.0 |
| 20260905115728 | 74 | 236 | 0.0 | 0.0 | 0.00 | 0.00 | 0.00 | 94 | 1013.8 |
| 20260905115235 | 74 | 236 | 0.0 | 0.0 | 0.00 | 0.00 | 0.00 | 93 | 1013.9 |
| 20260905114721 | 74 | 236 | 0.0 | 0.0 | 0.00 | 0.00 | 0.00 | 93 | 1013.8 |
| 20260905114246 | 74 | 236 | 0.0 | 0.0 | 0.00 | 0.00 | 0.00 | 93 | 1013.9 |
| 20260905113750 | 74 | 236 | 0.0 | 0.0 | 0.00 | 0.00 | 0.00 | 93 | 1013.9 |
| 20260905113231 | 74 | 236 | 0.0 | 0.0 | 0.00 | 0.00 | 0.00 | 93 | 1013.9 |
| 20260905112735 | 74 | 236 | 0.0 | 0.0 | 0.00 | 0.00 | 0.00 | 93 | 1013.7 |
| 20260905112218 | 74 | 236 | 0.0 | 0.0 | 0.00 | 0.00 | 0.00 | 93 | 1013.7 |
| 20260905111742 | 74 | 236 | 0.0 | 0.0 | 0.00 | 0.00 | 0.00 | 93 | 1013.6 |
| 20260905111225 | 74 | 236 | 0.0 | 0.0 | 0.00 | 0.00 | 0.00 | 93 | 1013.6 |
| 20260905110749 | 74 | 236 | 0.0 | 0.0 | 0.00 | 0.00 | 0.00 | 93 | 1013.5 |
| 20260905110232 | 74 | 236 | 0.0 | 0.0 | 0.00 | 0.00 | 0.00 | 93 | 1013.5 |
| 20260905105716 | 74 | 236 | 0.0 | 0.0 | 0.00 | 0.00 | 0.00 | 93 | 1013.5 |
| 20260905105220 | 75 | 236 | 0.0 | 0.0 | 0.00 | 0.00 | 0.00 | 93 | 1013.3 |
| 20260905104724 | 75 | 236 | 0.0 | 0.0 | 0.00 | 0.00 | 0.00 | 93 | 1013.3 |
| 20260905104228 | 75 | 236 | 0.0 | 0.0 | 0.00 | 0.00 | 0.00 | 93 | 1013.4 |
| 20260905103752 | 75 | 236 | 0.0 | 0.0 | 0.00 | 0.00 | 0.00 | 93 | 1013.4 |
| 20260905103215 | 75 | 236 | 0.0 | 0.0 | 0.00 | 0.00 | 0.00 | 93 | 1013.3 |
| 20260905102719 | 75 | 236 | 0.0 | 0.0 | 0.00 | 0.00 | 0.00 | 93 | 1013.4 |
| 20260905102243 | 75 | 236 | 0.0 | 0.0 | 0.00 | 0.00 | 0.00 | 93 | 1013.4 |
| 20260905101746 | 75 | 236 | 0.0 | 1.0 | 0.00 | 0.00 | 0.00 | 92 | 1013.5 |
| 20260905101229 | 75 | 236 | 0.0 | 1.0 | 0.00 | 0.00 | 0.00 | 92 | 1013.5 |
| 20260905100713 | 75 | 236 | 0.0 | 1.0 | 0.00 | 0.00 | 0.00 | 92 | 1013.5 |
| 20260905100217 | 75 | 236 | 0.0 | 1.0 | 0.00 | 0.00 | 0.00 | 93 | 1013.5 |
| 20260905095741 | 75 | 236 | 0.0 | 1.0 | 0.00 | 0.00 | 0.00 | 93 | 1013.4 |
| 20260905095224 | 75 | 236 | 0.0 | 1.0 | 0.00 | 0.00 | 0.00 | 92 | 1013.4 |
| 20260905094744 | 75 | 236 | 0.0 | 1.0 | 0.00 | 0.00 | 0.00 | 92 | 1013.4 |
| 20260905094247 | 75 | 236 | 0.0 | 1.0 | 0.00 | 0.00 | 0.00 | 92 | 1013.4 |
| 20260905093730 | 75 | 236 | 0.0 | 2.0 | 0.00 | 0.00 | 0.00 | 92 | 1013.5 |
| 20260905093214 | 75 | 236 | 0.0 | 2.0 | 0.00 | 0.00 | 0.00 | 92 | 1013.5 |
| 20260905092738 | 75 | 236 | 0.0 | 2.0 | 0.00 | 0.00 | 0.00 | 92 | 1013.5 |
| 20260905092243 | 75 | 259 | 0.0 | 0.0 | 0.00 | 0.00 | 0.00 | 92 | 1013.4 |
| 20260905091748 | 76 | 260 | 0.0 | 0.0 | 0.00 | 0.00 | 0.00 | 92 | 1013.4 |
| 20260905091253 | 76 | 260 | 0.0 | 0.0 | 0.00 | 0.00 | 0.00 | 92 | 1013.3 |
| 20260905090738 | 76 | 260 | 0.0 | 0.0 | 0.00 | 0.00 | 0.00 | 92 | 1013.3 |
| 20260905090244 | 76 | 260 | 0.0 | 0.0 | 0.00 | 0.00 | 0.00 | 92 | 1013.3 |
| 20260905085729 | 76 | 260 | 0.0 | 0.0 | 0.00 | 0.00 | 0.00 | 92 | 1013.2 |
| 20260905085213 | 76 | 260 | 0.0 | 0.0 | 0.00 | 0.00 | 0.00 | 92 | 1013.1 |
| 20260905084737 | 76 | 260 | 0.0 | 0.0 | 0.00 | 0.00 | 0.00 | 92 | 1013.1 |
| 20260905084220 | 76 | 260 | 0.0 | 0.0 | 0.00 | 0.00 | 0.00 | 92 | 1013.1 |
| 20260905083746 | 76 | 260 | 0.0 | 0.0 | 0.00 | 0.00 | 0.00 | 92 | 1013.0 |
| 20260905083232 | 76 | 260 | 0.0 | 0.0 | 0.00 | 0.00 | 0.00 | 92 | 1012.9 |
| 20260905082718 | 76 | 260 | 0.0 | 0.0 | 0.00 | 0.00 | 0.00 | 92 | 1012.9 |
| 20260905082225 | 76 | 260 | 0.0 | 0.0 | 0.00 | 0.00 | 0.00 | 92 | 1012.8 |
| 20260905081731 | 76 | 260 | 0.0 | 2.0 | 0.00 | 0.00 | 0.00 | 92 | 1012.8 |
| 20260905081218 | 76 | 260 | 0.0 | 3.0 | 0.00 | 0.00 | 0.00 | 92 | 1012.9 |
| 20260905080724 | 76 | 260 | 1.0 | 3.0 | 0.00 | 0.00 | 0.00 | 92 | 1012.7 |
| 20260905080230 | 76 | 261 | 2.0 | 3.0 | 0.00 | 0.00 | 0.00 | 92 | 1012.8 |
| 20260905075717 | 76 | 225 | 0.0 | 3.0 | 0.00 | 0.00 | 0.00 | 91 | 1012.7 |
| 20260905075223 | 76 | 226 | 0.0 | 0.0 | 0.00 | 0.00 | 0.00 | 92 | 1012.7 |
| 20260905074729 | 76 | 226 | 0.0 | 0.0 | 0.00 | 0.00 | 0.00 | 91 | 1012.8 |
| 20260905074216 | 76 | 226 | 0.0 | 0.0 | 0.00 | 0.00 | 0.00 | 91 | 1012.8 |
| 20260905073743 | 76 | 226 | 0.0 | 0.0 | 0.00 | 0.00 | 0.00 | 92 | 1013.0 |
| 20260905073228 | 76 | 226 | 0.0 | 0.0 | 0.00 | 0.00 | 0.00 | 92 | 1013.0 |
| 20260905072736 | 76 | 226 | 0.0 | 0.0 | 0.00 | 0.00 | 0.00 | 92 | 1013.0 |
| 20260905072221 | 76 | 226 | 0.0 | 0.0 | 0.00 | 0.00 | 0.00 | 92 | 1013.0 |
| 20260905071745 | 77 | 226 | 0.0 | 0.0 | 0.00 | 0.00 | 0.00 | 92 | 1013.1 |
| 20260905071227 | 77 | 226 | 0.0 | 0.0 | 0.00 | 0.00 | 0.00 | 92 | 1013.0 |
| 20260905070751 | 77 | 226 | 0.0 | 0.0 | 0.00 | 0.00 | 0.00 | 92 | 1013.2 |
| 20260905070214 | 77 | 226 | 0.0 | 0.0 | 0.00 | 0.00 | 0.00 | 91 | 1013.2 |
| 20260905065718 | 77 | 226 | 0.0 | 0.0 | 0.00 | 0.00 | 0.00 | 91 | 1013.2 |
| 20260905065222 | 77 | 226 | 0.0 | 0.0 | 0.00 | 0.00 | 0.00 | 91 | 1013.2 |
| 20260905064726 | 77 | 226 | 0.0 | 0.0 | 0.00 | 0.00 | 0.00 | 91 | 1013.2 |
| 20260905064230 | 77 | 226 | 0.0 | 0.0 | 0.00 | 0.00 | 0.00 | 91 | 1013.3 |
| 20260905063714 | 77 | 226 | 0.0 | 0.0 | 0.00 | 0.00 | 0.00 | 91 | 1013.3 |
| 20260905063218 | 77 | 226 | 0.0 | 0.0 | 0.00 | 0.00 | 0.00 | 91 | 1013.3 |
| 20260905062742 | 77 | 226 | 0.0 | 0.0 | 0.00 | 0.00 | 0.00 | 91 | 1013.3 |
| 20260905062225 | 77 | 226 | 0.0 | 0.0 | 0.00 | 0.00 | 0.00 | 91 | 1013.4 |
| 20260905061729 | 77 | 226 | 0.0 | 0.0 | 0.00 | 0.00 | 0.00 | 91 | 1013.3 |
| 20260905061253 | 77 | 226 | 0.0 | 0.0 | 0.00 | 0.00 | 0.00 | 91 | 1013.4 |
| 20260905060717 | 78 | 226 | 0.0 | 0.0 | 0.00 | 0.00 | 0.00 | 91 | 1013.4 |
| 20260905060243 | 78 | 226 | 0.0 | 0.0 | 0.00 | 0.00 | 0.00 | 91 | 1013.4 |
| 20260905055749 | 78 | 226 | 0.0 | 0.0 | 0.00 | 0.00 | 0.00 | 91 | 1013.5 |
| 20260905055253 | 78 | 226 | 0.0 | 0.0 | 0.00 | 0.00 | 0.00 | 91 | 1013.5 |
| 20260905054716 | 78 | 226 | 0.0 | 0.0 | 0.00 | 0.00 | 0.00 | 91 | 1013.6 |
| 20260905054222 | 78 | 226 | 0.0 | 1.0 | 0.00 | 0.00 | 0.00 | 91 | 1013.6 |
| 20260905053729 | 78 | 226 | 0.0 | 1.0 | 0.00 | 0.00 | 0.00 | 91 | 1013.7 |
| 20260905053236 | 78 | 226 | 0.0 | 0.0 | 0.00 | 0.00 | 0.00 | 90 | 1013.7 |
| 20260905052742 | 78 | 226 | 0.0 | 0.0 | 0.00 | 0.00 | 0.00 | 90 | 1013.8 |
| 20260905052228 | 78 | 226 | 0.0 | 0.0 | 0.00 | 0.00 | 0.00 | 90 | 1013.8 |
| 20260905051714 | 78 | 226 | 0.0 | 0.0 | 0.00 | 0.00 | 0.00 | 90 | 1013.6 |
| 20260905051241 | 78 | 226 | 0.0 | 0.0 | 0.00 | 0.00 | 0.00 | 90 | 1013.7 |
| 20260905050747 | 78 | 226 | 0.0 | 0.0 | 0.00 | 0.00 | 0.00 | 90 | 1013.7 |
| 20260905050253 | 78 | 226 | 0.0 | 0.0 | 0.00 | 0.00 | 0.00 | 90 | 1013.7 |
| 20260905045719 | 79 | 226 | 0.0 | 0.0 | 0.00 | 0.00 | 0.00 | 90 | 1013.9 |
| 20260905045245 | 78 | 226 | 0.0 | 0.0 | 0.00 | 0.00 | 0.00 | 90 | 1013.9 |
| 20260905044731 | 79 | 226 | 0.0 | 0.0 | 0.00 | 0.00 | 0.00 | 90 | 1013.9 |
| 20260905044213 | 79 | 226 | 0.0 | 0.0 | 0.00 | 0.00 | 0.00 | 90 | 1014.0 |
| 20260905043719 | 79 | 226 | 0.0 | 0.0 | 0.00 | 0.00 | 0.00 | 90 | 1014.0 |
| 20260905043225 | 79 | 226 | 0.0 | 0.0 | 0.00 | 0.00 | 0.00 | 90 | 1013.9 |
| 20260905042731 | 79 | 226 | 0.0 | 0.0 | 0.00 | 0.00 | 0.00 | 89 | 1013.8 |
| 20260905042239 | 79 | 226 | 0.0 | 0.0 | 0.00 | 0.00 | 0.00 | 89 | 1013.8 |
| 20260905041724 | 79 | 226 | 0.0 | 0.0 | 0.00 | 0.00 | 0.00 | 89 | 1013.7 |
| 20260905041231 | 79 | 226 | 0.0 | 0.0 | 0.00 | 0.00 | 0.00 | 89 | 1013.9 |
| 20260905040717 | 79 | 226 | 0.0 | 0.0 | 0.00 | 0.00 | 0.00 | 88 | 1013.8 |
| 20260905040223 | 79 | 226 | 0.0 | 0.0 | 0.00 | 0.00 | 0.00 | 88 | 1013.9 |
| 20260905035728 | 79 | 226 | 0.0 | 0.0 | 0.00 | 0.00 | 0.00 | 88 | 1013.9 |
| 20260905035236 | 79 | 226 | 0.0 | 0.0 | 0.00 | 0.00 | 0.00 | 88 | 1013.9 |
| 20260905034742 | 80 | 226 | 0.0 | 0.0 | 0.00 | 0.00 | 0.00 | 87 | 1013.9 |
| 20260905034248 | 80 | 226 | 0.0 | 0.0 | 0.00 | 0.00 | 0.00 | 87 | 1014.0 |
| 20260905033753 | 80 | 226 | 0.0 | 0.0 | 0.00 | 0.00 | 0.00 | 86 | 1013.9 |
| 20260905033219 | 80 | 226 | 0.0 | 0.0 | 0.00 | 0.00 | 0.00 | 86 | 1014.0 |
| 20260905032725 | 80 | 226 | 0.0 | 0.0 | 0.00 | 0.00 | 0.00 | 85 | 1013.9 |
| 20260905032231 | 80 | 226 | 0.0 | 1.0 | 0.00 | 0.00 | 0.00 | 85 | 1013.9 |
| 20260905031718 | 80 | 226 | 0.0 | 1.0 | 0.00 | 0.00 | 0.00 | 85 | 1013.8 |
| 20260905031224 | 80 | 226 | 0.0 | 2.0 | 0.00 | 0.00 | 0.00 | 85 | 1013.9 |
| 20260905030752 | 81 | 226 | 0.0 | 2.0 | 0.00 | 0.00 | 0.00 | 85 | 1013.9 |
| 20260905030217 | 81 | 226 | 0.0 | 0.0 | 0.00 | 0.00 | 0.00 | 85 | 1013.9 |
| 20260905025723 | 81 | 226 | 0.0 | 0.0 | 0.00 | 0.00 | 0.00 | 84 | 1013.9 |
| 20260905025230 | 81 | 226 | 0.0 | 0.0 | 0.00 | 0.00 | 0.00 | 84 | 1013.9 |
| 20260905024716 | 81 | 226 | 0.0 | 0.0 | 0.00 | 0.00 | 0.00 | 84 | 1013.9 |
| 20260905024222 | 81 | 226 | 0.0 | 0.0 | 0.00 | 0.00 | 0.00 | 83 | 1013.9 |
| 20260905023729 | 81 | 226 | 0.0 | 0.0 | 0.00 | 0.00 | 0.00 | 84 | 1013.9 |
| 20260905023215 | 82 | 226 | 0.0 | 0.0 | 0.00 | 0.00 | 0.00 | 83 | 1013.9 |
| 20260905022718 | 82 | 226 | 0.0 | 0.0 | 0.00 | 0.00 | 0.00 | 82 | 1014.0 |
| 20260905022241 | 82 | 226 | 0.0 | 0.0 | 0.00 | 0.00 | 0.00 | 81 | 1013.9 |
| 20260905021724 | 82 | 226 | 0.0 | 0.0 | 0.00 | 0.00 | 0.00 | 81 | 1013.9 |
| 20260905021228 | 83 | 226 | 0.0 | 0.0 | 0.00 | 0.00 | 0.00 | 81 | 1014.0 |
| 20260905020732 | 83 | 226 | 0.0 | 0.0 | 0.00 | 0.00 | 0.00 | 80 | 1013.9 |
| 20260905020216 | 83 | 226 | 0.0 | 0.0 | 0.00 | 0.00 | 0.00 | 79 | 1013.8 |
| 20260905015740 | 83 | 226 | 0.0 | 0.0 | 0.00 | 0.00 | 0.00 | 78 | 1013.8 |
| 20260905015223 | 83 | 226 | 0.0 | 2.0 | 0.00 | 0.00 | 0.00 | 77 | 1013.9 |
| 20260905014747 | 83 | 226 | 0.0 | 2.0 | 0.00 | 0.00 | 0.00 | 77 | 1013.8 |
| 20260905014230 | 84 | 226 | 0.0 | 1.0 | 0.00 | 0.00 | 0.00 | 77 | 1013.7 |
| 20260905013715 | 84 | 226 | 0.0 | 0.0 | 0.00 | 0.00 | 0.00 | 77 | 1013.6 |
| 20260905013220 | 84 | 226 | 0.0 | 1.0 | 0.00 | 0.00 | 0.00 | 77 | 1013.5 |
| 20260905012725 | 85 | 226 | 0.0 | 1.0 | 0.00 | 0.00 | 0.00 | 76 | 1013.6 |
| 20260905012230 | 85 | 226 | 0.0 | 2.0 | 0.00 | 0.00 | 0.00 | 76 | 1013.6 |
| 20260905011715 | 85 | 226 | 0.0 | 3.0 | 0.00 | 0.00 | 0.00 | 76 | 1013.5 |
| 20260905011242 | 86 | 226 | 1.0 | 3.0 | 0.00 | 0.00 | 0.00 | 76 | 1013.5 |
| 20260905010726 | 86 | 315 | 0.0 | 0.0 | 0.00 | 0.00 | 0.00 | 75 | 1013.4 |
| 20260905010232 | 86 | 315 | 0.0 | 0.0 | 0.00 | 0.00 | 0.00 | 75 | 1013.4 |
| 20260905005718 | 87 | 316 | 0.0 | 0.0 | 0.00 | 0.00 | 0.00 | 74 | 1013.3 |
| 20260905005223 | 87 | 316 | 0.0 | 0.0 | 0.00 | 0.00 | 0.00 | 74 | 1013.3 |
| 20260905004728 | 88 | 316 | 0.0 | 0.0 | 0.00 | 0.00 | 0.00 | 74 | 1013.2 |
| 20260905004214 | 88 | 316 | 0.0 | 0.0 | 0.00 | 0.00 | 0.00 | 72 | 1013.1 |
| 20260905003719 | 88 | 316 | 0.0 | 0.0 | 0.00 | 0.00 | 0.00 | 71 | 1013.2 |
| 20260905003225 | 89 | 316 | 0.0 | 0.0 | 0.00 | 0.00 | 0.00 | 70 | 1013.2 |
| 20260905002729 | 89 | 316 | 0.0 | 0.0 | 0.00 | 0.00 | 0.00 | 70 | 1013.1 |
| 20260905002234 | 90 | 316 | 0.0 | 0.0 | 0.00 | 0.00 | 0.00 | 70 | 1013.1 |
| 20260905001741 | 91 | 316 | 0.0 | 1.0 | 0.00 | 0.00 | 0.00 | 70 | 1013.0 |
| 20260905001246 | 91 | 316 | 0.0 | 2.0 | 0.00 | 0.00 | 0.00 | 69 | 1013.0 |
| 20260905000713 | 92 | 316 | 1.0 | 2.0 | 0.00 | 0.00 | 0.00 | 68 | 1013.0 |
| 20260905000219 | 93 | 316 | 1.0 | 2.0 | 0.00 | 0.00 | 0.00 | 66 | 1012.9 |
| 20260904235725 | 94 | 316 | 0.0 | 1.0 | 0.00 | 0.00 | 0.00 | 65 | 1012.9 |
| 20260904235251 | 94 | 316 | 0.0 | 0.0 | 0.00 | 0.00 | 0.00 | 64 | 1013.0 |
| 20260904234737 | 95 | 316 | 0.0 | 0.0 | 0.00 | 0.00 | 0.00 | 63 | 1013.0 |
| 20260904234222 | 96 | 316 | 0.0 | 0.0 | 0.00 | 0.00 | 0.00 | 62 | 1013.0 |
| 20260904233730 | 96 | 316 | 0.0 | 0.0 | 0.00 | 0.00 | 0.00 | 61 | 1013.0 |
| 20260904233236 | 97 | 316 | 0.0 | 0.0 | 0.00 | 0.00 | 0.00 | 58 | 1013.0 |
| 20260904232744 | 97 | 316 | 0.0 | 0.0 | 0.00 | 0.00 | 0.00 | 56 | 1013.0 |
| 20260904232249 | 98 | 316 | 0.0 | 0.0 | 0.00 | 0.00 | 0.00 | 54 | 1013.0 |
| 20260904231734 | 98 | 316 | 0.0 | 1.0 | 0.00 | 0.00 | 0.00 | 55 | 1013.0 |
| 20260904231219 | 99 | 316 | 0.0 | 1.0 | 0.00 | 0.00 | 0.00 | 55 | 1013.0 |
| 20260904230722 | 99 | 316 | 0.0 | 1.0 | 0.00 | 0.00 | 0.00 | 55 | 1013.1 |
| 20260904230229 | 99 | 316 | 0.0 | 1.0 | 0.00 | 0.00 | 0.00 | 55 | 1013.0 |
| 20260904225714 | 99 | 316 | 0.0 | 1.0 | 0.00 | 0.00 | 0.00 | 55 | 1013.1 |
| 20260904225221 | 99 | 316 | 0.0 | 2.0 | 0.00 | 0.00 | 0.00 | 54 | 1013.0 |
| 20260904224727 | 100 | 316 | 1.0 | 2.0 | 0.00 | 0.00 | 0.00 | 51 | 1013.1 |
| 20260904224253 | 100 | 316 | 0.0 | 2.0 | 0.00 | 0.00 | 0.00 | 51 | 1013.1 |
| 20260904223718 | 100 | 316 | 1.0 | 3.0 | 0.00 | 0.00 | 0.00 | 51 | 1013.0 |
| 20260904223224 | 100 | 316 | 1.0 | 3.0 | 0.00 | 0.00 | 0.00 | 50 | 1013.1 |
| 20260904222750 | 100 | 316 | 1.0 | 2.0 | 0.00 | 0.00 | 0.00 | 49 | 1013.0 |
| 20260904222215 | 100 | 316 | 1.0 | 4.0 | 0.00 | 0.00 | 0.00 | 49 | 1013.0 |
| 20260904221721 | 100 | 325 | 1.0 | 4.0 | 0.00 | 0.00 | 0.00 | 47 | 1013.1 |
| 20260904221246 | 100 | 331 | 1.0 | 3.0 | 0.00 | 0.00 | 0.00 | 47 | 1013.1 |
| 20260904220727 | 100 | 332 | 2.0 | 3.0 | 0.00 | 0.00 | 0.00 | 50 | 1013.2 |
| 20260904220230 | 100 | 343 | 2.0 | 3.0 | 0.00 | 0.00 | 0.00 | 49 | 1013.2 |
| 20260904215732 | 101 | 343 | 1.0 | 2.0 | 0.00 | 0.00 | 0.00 | 48 | 1013.3 |
| 20260904215214 | 101 | 344 | 1.0 | 3.0 | 0.00 | 0.00 | 0.00 | 48 | 1013.4 |
| 20260904214715 | 101 | 343 | 1.0 | 4.0 | 0.00 | 0.00 | 0.00 | 47 | 1013.3 |
| 20260904214219 | 101 | 326 | 1.0 | 5.0 | 0.00 | 0.00 | 0.00 | 46 | 1013.4 |
| 20260904213723 | 101 | 300 | 3.0 | 5.0 | 0.00 | 0.00 | 0.00 | 48 | 1013.3 |
| 20260904213247 | 101 | 303 | 2.0 | 3.0 | 0.00 | 0.00 | 0.00 | 48 | 1013.3 |
| 20260904212730 | 101 | 303 | 2.0 | 5.0 | 0.00 | 0.00 | 0.00 | 49 | 1013.4 |
| 20260904212231 | 101 | 306 | 3.0 | 7.0 | 0.00 | 0.00 | 0.00 | 49 | 1013.5 |
| 20260904211735 | 101 | 265 | 3.0 | 7.0 | 0.00 | 0.00 | 0.00 | 46 | 1013.4 |
| 20260904211238 | 100 | 336 | 1.0 | 5.0 | 0.00 | 0.00 | 0.00 | 48 | 1013.4 |
| 20260904210721 | 100 | 328 | 2.0 | 6.0 | 0.00 | 0.00 | 0.00 | 47 | 1013.5 |
| 20260904210225 | 100 | 335 | 2.0 | 6.0 | 0.00 | 0.00 | 0.00 | 47 | 1013.5 |
| 20260904205729 | 100 | 321 | 2.0 | 4.0 | 0.00 | 0.00 | 0.00 | 48 | 1013.6 |
| 20260904205213 | 100 | 335 | 1.0 | 5.0 | 0.00 | 0.00 | 0.00 | 48 | 1013.7 |
| 20260904204716 | 100 | 321 | 2.0 | 5.0 | 0.00 | 0.00 | 0.00 | 46 | 1013.7 |
| 20260904204221 | 100 | 333 | 2.0 | 6.0 | 0.00 | 0.00 | 0.00 | 47 | 1013.7 |
| 20260904203745 | 100 | 334 | 4.0 | 6.0 | 0.00 | 0.00 | 0.00 | 47 | 1013.8 |
| 20260904203247 | 101 | 323 | 2.0 | 5.0 | 0.00 | 0.00 | 0.00 | 49 | 1013.9 |
| 20260904202731 | 100 | 296 | 3.0 | 4.0 | 0.00 | 0.00 | 0.00 | 50 | 1014.0 |
| 20260904202215 | 100 | 271 | 2.0 | 4.0 | 0.00 | 0.00 | 0.00 | 48 | 1014.0 |
| 20260904201720 | 100 | 328 | 1.0 | 3.0 | 0.00 | 0.00 | 0.00 | 49 | 1014.1 |
| 20260904201225 | 100 | 329 | 0.0 | 5.0 | 0.00 | 0.00 | 0.00 | 47 | 1014.1 |
| 20260904200730 | 100 | 329 | 3.0 | 6.0 | 0.00 | 0.00 | 0.00 | 48 | 1014.3 |
| 20260904200217 | 100 | 295 | 3.0 | 6.0 | 0.00 | 0.00 | 0.00 | 49 | 1014.3 |
| 20260904195743 | 100 | 335 | 3.0 | 5.0 | 0.00 | 0.00 | 0.00 | 48 | 1014.4 |
| 20260904195227 | 99 | 327 | 2.0 | 5.0 | 0.00 | 0.00 | 0.00 | 48 | 1014.4 |
| 20260904194713 | 99 | 66 | 3.0 | 8.0 | 0.00 | 0.00 | 0.00 | 50 | 1014.6 |
| 20260904194219 | 99 | 117 | 2.0 | 9.0 | 0.00 | 0.00 | 0.00 | 49 | 1014.8 |
| 20260904193724 | 99 | 340 | 2.0 | 9.0 | 0.00 | 0.00 | 0.00 | 50 | 1014.9 |
| 20260904193230 | 99 | 298 | 1.0 | 11.0 | 0.00 | 0.00 | 0.00 | 49 | 1014.9 |
| 20260904192737 | 99 | 323 | 4.0 | 11.0 | 0.00 | 0.00 | 0.00 | 49 | 1015.0 |
| 20260904192242 | 99 | 336 | 4.0 | 10.0 | 0.00 | 0.00 | 0.00 | 51 | 1015.1 |
| 20260904191748 | 99 | 319 | 2.0 | 10.0 | 0.00 | 0.00 | 0.00 | 48 | 1015.1 |
| 20260904191234 | 99 | 355 | 4.0 | 9.0 | 0.00 | 0.00 | 0.00 | 49 | 1015.2 |
| 20260904190719 | 99 | 333 | 6.0 | 9.0 | 0.00 | 0.00 | 0.00 | 50 | 1015.2 |
| 20260904190246 | 99 | 269 | 2.0 | 6.0 | 0.00 | 0.00 | 0.00 | 49 | 1015.2 |
| 20260904185712 | 99 | 306 | 3.0 | 5.0 | 0.00 | 0.00 | 0.00 | 52 | 1015.3 |
| 20260904185219 | 98 | 302 | 2.0 | 7.0 | 0.00 | 0.00 | 0.00 | 52 | 1015.3 |
| 20260904184725 | 98 | 254 | 2.0 | 8.0 | 0.00 | 0.00 | 0.00 | 51 | 1015.4 |
| 20260904184231 | 97 | 329 | 4.0 | 8.0 | 0.00 | 0.00 | 0.00 | 52 | 1015.5 |
| 20260904183738 | 97 | 313 | 3.0 | 6.0 | 0.00 | 0.00 | 0.00 | 52 | 1015.5 |
| 20260904183224 | 97 | 360 | 4.0 | 6.0 | 0.00 | 0.00 | 0.00 | 53 | 1015.6 |
| 20260904182728 | 97 | 309 | 3.0 | 5.0 | 0.00 | 0.00 | 0.00 | 54 | 1015.6 |
| 20260904182216 | 97 | 292 | 2.0 | 7.0 | 0.00 | 0.00 | 0.00 | 54 | 1015.7 |
| 20260904181722 | 97 | 303 | 3.0 | 8.0 | 0.00 | 0.00 | 0.00 | 52 | 1015.7 |
| 20260904181249 | 97 | 302 | 2.0 | 8.0 | 0.00 | 0.00 | 0.00 | 52 | 1015.7 |
| 20260904180733 | 97 | 302 | 4.0 | 8.0 | 0.00 | 0.00 | 0.00 | 51 | 1015.7 |
| 20260904180219 | 97 | 311 | 2.0 | 9.0 | 0.00 | 0.00 | 0.00 | 52 | 1015.9 |
| 20260904175725 | 97 | 325 | 6.0 | 10.0 | 0.00 | 0.00 | 0.00 | 51 | 1015.9 |
| 20260904175230 | 97 | 355 | 5.0 | 10.0 | 0.00 | 0.00 | 0.00 | 52 | 1016.0 |
| 20260904174737 | 97 | 298 | 4.0 | 9.0 | 0.00 | 0.00 | 0.00 | 55 | 1016.0 |
| 20260904174223 | 97 | 329 | 2.0 | 5.0 | 0.00 | 0.00 | 0.00 | 52 | 1016.1 |
| 20260904173749 | 97 | 307 | 3.0 | 6.0 | 0.00 | 0.00 | 0.00 | 54 | 1016.1 |
| 20260904173215 | 97 | 271 | 4.0 | 8.0 | 0.00 | 0.00 | 0.00 | 55 | 1016.2 |
| 20260904172742 | 96 | 314 | 3.0 | 8.0 | 0.00 | 0.00 | 0.00 | 55 | 1016.2 |
| 20260904172227 | 96 | 324 | 3.0 | 8.0 | 0.00 | 0.00 | 0.00 | 55 | 1016.3 |
| 20260904171734 | 96 | 315 | 4.0 | 10.0 | 0.00 | 0.00 | 0.00 | 54 | 1016.3 |
| 20260904171218 | 96 | 330 | 5.0 | 10.0 | 0.00 | 0.00 | 0.00 | 54 | 1016.4 |
| 20260904170723 | 96 | 296 | 6.0 | 11.0 | 0.00 | 0.00 | 0.00 | 52 | 1016.3 |
| 20260904170229 | 97 | 325 | 6.0 | 11.0 | 0.00 | 0.00 | 0.00 | 54 | 1016.4 |
| 20260904165734 | 96 | 323 | 6.0 | 11.0 | 0.00 | 0.00 | 0.00 | 55 | 1016.4 |
| 20260904165252 | 96 | 334 | 3.0 | 9.0 | 0.00 | 0.00 | 0.00 | 56 | 1016.5 |
| 20260904164716 | 96 | 36 | 3.0 | 10.0 | 0.00 | 0.00 | 0.00 | 56 | 1016.3 |
| 20260904164220 | 96 | 328 | 5.0 | 10.0 | 0.00 | 0.00 | 0.00 | 55 | 1016.5 |
| 20260904163744 | 96 | 265 | 4.0 | 8.0 | 0.00 | 0.00 | 0.00 | 56 | 1016.4 |
| 20260904163227 | 96 | 260 | 4.0 | 11.0 | 0.00 | 0.00 | 0.00 | 57 | 1016.4 |